Valparaiso, IN

4:43 PM CDT on July 27, 2017 (GMT -0500)
Porter County Municipal

Weather History for KVPZ - August, 2014

Change the Weather History Date:

Saturday, August 30, 2014

  Actual Average Record
Temperature  
Mean Temperature 75 °F 69 °F  
Max Temperature 82 °F 79 °F 94 °F (2013)
Min Temperature 68 °F 59 °F 47 °F (2009)
Degree Days  
Heating Degree Days 0 1  
Month to date heating degree days 15 6  
Since 1 June heating degree days 60 51  
Since 1 July heating degree days 40 10  
Cooling Degree Days 10 5  
Month to date cooling degree days 193 182  
Year to date cooling degree days 537 633  
Since 1 June cooling degree days 464 586  
Growing Degree Days 25 (Base 50)    
Moisture  
Dew Point 69 °F    
Average Humidity 82    
Maximum Humidity 96    
Minimum Humidity 69    
Precipitation  
Precipitation 0.21 in 0.14 in 0.21 in (2009)
Month to date precipitation 10.49 4.18  
Year to date precipitation 29.36 25.41  
Sea Level Pressure  
Sea Level Pressure 29.90 in    
Wind  
Wind Speed 11 mph (SSW)    
Max Wind Speed 23 mph    
Max Gust Speed 30 mph    
Visibility 9 miles    
Events Rain    
T = Trace of Precipitation, MM = Missing Value Source: NWS Daily Summary

Daily Weather History Graph

Daily Weather History Graph

Search for Another Location

Airport or City:

Trip Planner

Search our weather history database for the weather conditions in past years. The results will help you decide how hot, cold, wet, or windy it might be!

Date:

Astronomy

Aug. 30, 2014 Rise Set
Actual Time 6:12 AM CDT 7:24 PM CDT
Civil Twilight 5:43 AM CDT 7:52 PM CDT
Nautical Twilight 5:09 AM CDT 8:26 PM CDT
Astronomical Twilight 4:33 AM CDT 9:02 PM CDT
Moon 11:03 AM CDT (8/30) 9:54 PM CDT (8/30)
Length of Visible Light 14h 09m
Length of Day
13h 12m
Waxing Crescent, 23% of the Moon is Illuminated
Aug 30
Waxing Crescent
Sep 2
First Quarter
Sep 8
Full
Sep 15
Last Quarter
Sep 24
New

Hourly Weather History & Observations

Time (CDT) Temp. Heat Index Dew Point Humidity Pressure Visibility Wind Dir Wind Speed Gust Speed Precip Events Conditions
12:53 AM 71.1 °F - 69.1 °F 93% 29.91 in 7.0 mi SSE 8.1 mph - N/A   Clear
1:53 AM 72.0 °F - 69.1 °F 91% 29.89 in 7.0 mi South 8.1 mph - N/A   Partly Cloudy
2:53 AM 72.0 °F - 68.0 °F 87% 29.88 in 8.0 mi South 6.9 mph - N/A   Scattered Clouds
3:53 AM 72.0 °F - 68.0 °F 87% 29.88 in 9.0 mi South 9.2 mph - N/A   Clear
4:53 AM 73.0 °F - 68.0 °F 84% 29.88 in 10.0 mi SSW 10.4 mph - N/A   Mostly Cloudy
5:53 AM 72.0 °F - 68.0 °F 87% 29.89 in 10.0 mi SSW 8.1 mph - N/A   Clear
6:53 AM 72.0 °F - 68.0 °F 87% 29.89 in 10.0 mi SSW 10.4 mph - N/A   Overcast
7:53 AM 73.0 °F - 69.1 °F 87% 29.90 in 10.0 mi SSW 11.5 mph - N/A   Clear
8:53 AM 73.9 °F - 69.1 °F 85% 29.90 in 10.0 mi SSW 12.7 mph - N/A   Scattered Clouds
9:23 AM 75.0 °F - 69.1 °F 82% 29.92 in 10.0 mi SSW 13.8 mph 20.7 mph N/A   Mostly Cloudy
9:53 AM 75.9 °F - 70.0 °F 82% 29.91 in 10.0 mi SSW 12.7 mph - N/A   Overcast
10:27 AM 77.0 °F - 69.1 °F 76% 29.92 in 10.0 mi SSW 13.8 mph 21.9 mph N/A   Scattered Clouds
10:53 AM 78.1 °F - 69.1 °F 74% 29.90 in 10.0 mi SSW 12.7 mph - N/A   Partly Cloudy
11:53 AM 80.1 °F 82.9 °F 69.1 °F 69% 29.90 in 10.0 mi SSW 16.1 mph 24.2 mph N/A   Scattered Clouds
12:50 PM 78.8 °F - 69.8 °F 74% 29.90 in 10.0 mi SW 20.7 mph 27.6 mph N/A   Mostly Cloudy
12:53 PM 79.0 °F - 69.1 °F 72% 29.89 in 10.0 mi SW 18.4 mph 27.6 mph N/A   Mostly Cloudy
1:11 PM 80.1 °F 82.9 °F 69.1 °F 69% 29.91 in 10.0 mi SW 15.0 mph 23.0 mph N/A   Overcast
1:53 PM 80.1 °F 83.2 °F 70.0 °F 71% 29.89 in 10.0 mi SW 19.6 mph 26.5 mph 0.00 in Rain Light Rain
2:20 PM 80.1 °F 83.6 °F 71.1 °F 74% 29.90 in 10.0 mi SSW 18.4 mph 25.3 mph 0.00 in   Mostly Cloudy
2:53 PM 79.0 °F - 69.1 °F 72% 29.88 in 10.0 mi SSW 11.5 mph - 0.00 in   Clear
3:53 PM 80.1 °F 83.6 °F 71.1 °F 74% 29.85 in 10.0 mi SW 12.7 mph - N/A   Partly Cloudy
4:53 PM 78.1 °F - 69.1 °F 74% 29.86 in 10.0 mi SW 10.4 mph - N/A   Clear
5:53 PM 78.1 °F - 70.0 °F 76% 29.86 in 10.0 mi SSW 9.2 mph - N/A   Partly Cloudy
6:53 PM 75.9 °F - 70.0 °F 82% 29.87 in 10.0 mi SW 10.4 mph - N/A   Scattered Clouds
7:04 PM 75.9 °F - 69.1 °F 79% 29.89 in 10.0 mi SW 9.2 mph - N/A   Mostly Cloudy
7:25 PM 75.0 °F - 69.1 °F 82% 29.90 in 10.0 mi SW 8.1 mph - N/A   Mostly Cloudy
7:53 PM 73.9 °F - 71.1 °F 91% 29.91 in 5.0 mi West 11.5 mph - 0.04 in Rain Light Rain
8:01 PM 73.0 °F - 70.0 °F 90% 29.92 in 1.8 mi West 9.2 mph - 0.12 in Rain Heavy Rain
8:11 PM 71.1 °F - 68.0 °F 90% 29.93 in 3.0 mi West 6.9 mph - 0.15 in Rain Light Rain
8:20 PM 70.0 °F - 68.0 °F 93% 29.92 in 7.0 mi West 3.5 mph - 0.17 in Rain Light Rain
8:53 PM 71.1 °F - 68.0 °F 90% 29.91 in 10.0 mi South 5.8 mph - 0.17 in   Mostly Cloudy
9:53 PM 71.1 °F - 70.0 °F 96% 29.91 in 10.0 mi South 4.6 mph - N/A   Scattered Clouds
10:53 PM 71.1 °F - 68.0 °F 90% 29.94 in 10.0 mi SW 8.1 mph - N/A   Clear
11:53 PM 69.1 °F - 64.9 °F 87% 29.93 in 10.0 mi SSW 6.9 mph - N/A   Scattered Clouds